Weather History for KCMH - March, 2014

Change the Weather History Date:

Tuesday, March 11, 2014

  Actual Average Record
Temperature  
Mean Temperature 59 °F 40 °F  
Max Temperature 69 °F 49 °F 76 °F (1990)
Min Temperature 49 °F 31 °F 8 °F (1948)
Degree Days  
Heating Degree Days 6 25  
Month to date heating degree days 327 293  
Since 1 July heating degree days 4711 4288  
Cooling Degree Days 0 0  
Month to date cooling degree days 0 0  
Year to date cooling degree days 0 0  
Growing Degree Days 8 (Base 50)    
Moisture  
Dew Point 39 °F    
Average Humidity 47    
Maximum Humidity 61    
Minimum Humidity 33    
Precipitation  
Precipitation 0.00 in 0.09 in 1.08 in (1890)
Month to date precipitation 0.22 0.94  
Year to date precipitation 5.01 5.92  
Snow  
Snow 0.00 in 0.20 in 6.60 in (1906)
Month to date snowfall 2.9 2.0  
Since 1 July snowfall 53.9 23.4  
Snow Depth 0.00 in    
Sea Level Pressure  
Sea Level Pressure 29.67 in    
Wind  
Wind Speed 7 mph (SW)    
Max Wind Speed 14 mph    
Max Gust Speed 17 mph    
Visibility 10 miles    
Events      
T = Trace of Precipitation, MM = Missing Value Source: NWS Daily Summary

Daily Weather History Graph

Daily Weather History Graph

Search for Another Location

Airport or City:

Trip Planner

Search our weather history database for the weather conditions in past years. The results will help you decide how hot, cold, wet, or windy it might be!

Date:

Astronomy

Mar. 11, 2014 Rise Set
Actual Time 7:49 AM EDT 7:34 PM EDT
Civil Twilight 7:22 AM EDT 8:01 PM EDT
Nautical Twilight 6:51 AM EDT 8:32 PM EDT
Astronomical Twilight 6:19 AM EDT 9:04 PM EDT
Moon 3:09 PM EDT (3/11) 4:42 AM EDT (3/11)
Length of Visible Light 12h 38m
Length of Day
11h 44m
Waxing Gibbous, 78% of the Moon is Illuminated
Mar 11
Waxing Gibbous
Mar 16
Full
Mar 23
Last Quarter
Mar 30
New
Apr 7
First Quarter

Hourly Weather History & Observations

Time (EDT) Temp. Dew Point Humidity Pressure Visibility Wind Dir Wind Speed Gust Speed Precip Events Conditions
12:51 AM 51.1 °F 35.1 °F 54% 29.72 in 10.0 mi West 5.8 mph - N/A   Scattered Clouds
1:51 AM 50.0 °F 35.1 °F 57% 29.72 in 10.0 mi SW 4.6 mph - N/A   Mostly Cloudy
2:51 AM 48.9 °F 34.0 °F 56% 29.72 in 10.0 mi SW 5.8 mph - N/A   Mostly Cloudy
3:51 AM 51.1 °F 35.1 °F 54% 29.71 in 10.0 mi SW 4.6 mph - N/A   Overcast
4:51 AM 52.0 °F 35.1 °F 53% 29.70 in 10.0 mi SW 5.8 mph - N/A   Overcast
5:51 AM 52.0 °F 36.0 °F 54% 29.71 in 10.0 mi SW 6.9 mph - N/A   Overcast
6:51 AM 52.0 °F 36.0 °F 54% 29.71 in 10.0 mi SW 6.9 mph - N/A   Overcast
7:51 AM 53.1 °F 37.0 °F 55% 29.71 in 10.0 mi WSW 6.9 mph - N/A   Overcast
8:51 AM 53.1 °F 37.0 °F 55% 29.72 in 10.0 mi SW 4.6 mph - N/A   Mostly Cloudy
9:51 AM 54.0 °F 37.9 °F 55% 29.73 in 10.0 mi South 8.1 mph - N/A   Mostly Cloudy
10:51 AM 54.0 °F 39.9 °F 59% 29.72 in 10.0 mi SW 13.8 mph - N/A   Scattered Clouds
11:51 AM 60.1 °F 41.0 °F 49% 29.70 in 10.0 mi SSE 8.1 mph - N/A   Scattered Clouds
12:51 PM 62.1 °F 42.1 °F 48% 29.69 in 9.0 mi South 6.9 mph - N/A   Scattered Clouds
1:51 PM 64.0 °F 43.0 °F 46% 29.67 in 10.0 mi SSW 9.2 mph - N/A   Scattered Clouds
2:51 PM 66.0 °F 44.1 °F 45% 29.64 in 10.0 mi South 6.9 mph - N/A   Scattered Clouds
3:51 PM 69.1 °F 39.9 °F 35% 29.63 in 10.0 mi South 13.8 mph - N/A   Mostly Cloudy
4:51 PM 66.9 °F 43.0 °F 42% 29.62 in 10.0 mi SW 9.2 mph 17.3 mph N/A   Overcast
5:51 PM 66.0 °F 43.0 °F 43% 29.61 in 10.0 mi SW 10.4 mph - N/A   Overcast
6:51 PM 66.0 °F 43.0 °F 43% 29.62 in 10.0 mi SSW 8.1 mph - N/A   Mostly Cloudy
7:51 PM 62.1 °F 42.1 °F 48% 29.61 in 10.0 mi Calm Calm - N/A   Overcast
8:51 PM 57.9 °F 42.1 °F 56% 29.61 in 10.0 mi Calm Calm - N/A   Overcast
9:51 PM 55.9 °F 42.1 °F 60% 29.61 in 10.0 mi Calm Calm - N/A   Overcast
10:51 PM 55.9 °F 42.1 °F 60% 29.62 in 10.0 mi North 3.5 mph - N/A   Overcast
11:51 PM 55.0 °F 42.1 °F 62% 29.60 in 10.0 mi East 5.8 mph - N/A   Overcast